AirNav   Air Wisconsin Up To $57,000 Bonus
 
 980 users online  

8C6 Traer Municipal Airport
Traer, Iowa, USA

GOING TO TRAER?


FAA INFORMATION EFFECTIVE 05 DECEMBER 2019

Location

FAA Identifier: 8C6
Lat/Long: 42-12-03.0000N 092-27-23.9000W
42-12.050000N 092-27.398333W
42.2008333,-92.4566389
(estimated)
Elevation: 892 ft. / 272 m (estimated)
Variation: 03E (1985)
From city: 1 mile NE of TRAER, IA
Time zone: UTC -6 (UTC -5 during Daylight Saving Time)
Zip code: 50675

Airport Operations

Airport use: Open to the public
Activation date: 05/1961
Control tower: no
ARTCC: CHICAGO CENTER
FSS: FORT DODGE FLIGHT SERVICE STATION
NOTAMs facility: FOD (NOTAM-D service available)
Attendance: UNATNDD
Wind indicator: lighted
Segmented circle: no
Lights: SS-SR

Airport Communications

CTAF: 122.9
WX AWOS-3 at VTI (19 nm E): 120.075 (319-472-3122)

Nearby radio navigation aids

VOR radial/distance  VOR name  Freq  Var
JWJr074/20.8ELMWOOD VOR/DME109.4001E
ALOr187/21.5WATERLOO VOR/DME112.2000E
CIDr297/35.3CEDAR RAPIDS VOR/DME114.1005E
TNUr046/38.4NEWTON VOR/DME112.5003E

 
NDB name  Hdg/Dist  Freq  Var  ID
WAPSIE236/27.120600EIIB .. .. -...

Airport Services

Parking: tiedowns
Airframe service: NONE
Powerplant service: NONE
Bottled oxygen: NONE
Bulk oxygen: NONE

Runway Information

Runway 17/35

Dimensions: 2555 x 100 ft. / 779 x 30 m
Surface: turf, in good condition
Runway edge lights: low intensity
Runway edge markings: 17/35 MARKED WITH YELLOW CONES.
Gradient: SOUTH
RUNWAY 17  RUNWAY 35
Latitude: 42-12.260862N42-11.840165N
Longitude: 092-27.393860W092-27.404377W
Elevation: 884.0 ft.891.0 ft.
Traffic pattern: leftright
Runway heading: 178 magnetic, 181 true358 magnetic, 001 true
Obstructions: 49 ft. trees, 980 ft. from runway, 180 ft. left of centerline, 20:1 slope to clear80 ft. tree, 1689 ft. from runway, 210 ft. right of centerline, 21:1 slope to clear

Airport Ownership and Management from official FAA records

Ownership: Publicly-owned
Owner: CITY OF TRAER
649 2ND ST
TRAER, IA 50675
Phone (319) 478-2580
Manager: CITY CLERK
649 2ND STREET
TRAER, IA 50675
Phone (319) 478-2580
ALSO JIM PIPPERT - 319-476-4353

Airport Operational Statistics

Aircraft based on the field: 8
Single engine airplanes: 8
    
Aircraft operations: avg 43/week *
51% local general aviation
49% transient general aviation
* for 12-month period ending 28 August 2017

Additional Remarks

SNOW RMVL DELAYED AT TIMES; CONFIRM RY COND PRIOR TO USE - CALL 319-478-2580
TURF RY SOFT DURING SPRING THAW.
PARALLEL TWY IS MKD AND LGTD ALONG EAST EDGE.
MOGAS AND 100LL FUEL AVBL FOR EMERG ONLY; CALL 319-476-4353.
FOR CD CTC CHICAGO ARTCC AT 630-906-8921.

Instrument Procedures

There are no published instrument procedures at 8C6.

Some nearby airports with instrument procedures:

KVTI - Vinton Veterans Memorial Airpark (19 nm E)
KTZT - Belle Plaine Municipal Airport (21 nm S)
KMIW - Marshalltown Municipal Airport (21 nm W)
KALO - Waterloo Regional Airport (22 nm N)
KIIB - Independence Municipal Airport (27 nm NE)
 
Loc | Ops | Rwys | IFR | FBO | Links
Com | Nav | Svcs | Stats | Notes
Area around 8C6 (Traer Municipal Airport)
 
Road maps at: MapQuest Bing Google
 
Aerial photo
No photo
 
Sectional chart

 
Airport distance calculator
Flying to Traer Municipal Airport? Find the distance to fly.

From to 8C6

Sunrise and sunset
Times for 13-Dec-2019
 Local
(UTC-6)
 Zulu
(UTC)
Morning civil twilight06:5912:59
Sunrise07:3113:31
Sunset16:3722:37
Evening civil twilight17:0923:09

Current date and time
Zulu (UTC)  13-Dec-2019 22:12:12
Local (UTC-6)  13-Dec-2019 16:12:12
 
METAR
KVTI 
19nm E 
132155Z AUTO 00000KT 4SM HZ CLR M01/M03 A2984 RMK AO2 T10071030
KMIW 
21nm W 
132153Z AUTO 00000KT 6SM BR BKN038 OVC048 M01/M03 A2982 RMK AO2 SLP111 T10111028
KALO 
21nm N 
132154Z 00000KT 5SM HZ BKN060 OVC095 M02/M05 A2984 RMK AO2 SLP115 T10171050
KIIB 
27nm NE 
132155Z AUTO 16005KT 5SM BR OVC080 M02/M03 A2983 RMK AO2 T10181032
KGGI 
32nm SW 
132155Z AUTO 18005KT 10SM OVC055 01/M03 A2983 RMK AO2 T00061026
KOLZ 
35nm NE 
132155Z AUTO 17007KT 6SM BR SCT023 OVC065 M02/M02 A2983 RMK A01
KCID 
38nm SE 
132152Z 10004KT 3SM BR BKN100 M01/M03 A2982 RMK AO2 SLP109 T10111028
TAF
KALO 
21nm N 
131734Z 1318/1418 VRB03KT 4SM BR OVC006 FM132100 VRB03KT P6SM VCSH OVC028 FM132300 VRB03KT P6SM OVC035 FM141200 32013KT P6SM BKN008 FM141700 32013KT P6SM SCT025
NOTAMs
Click for the latest NOTAMs
NOTAMs are issued by the DoD/FAA and will open in a separate window not controlled by AirNav.

 

 
 

Would you like to see your business listed on this page?

 If your business provides an interesting product or service to pilots, flight crews, aircraft, or users of the Traer Municipal Airport, you should consider listing it here.  To start the listing process, click on the button below
 
Add a business
 

Other Pages about Traer Municipal Airport

Page from the Iowa Airport Directory
 
Update a link
 
Copyright © AirNav, LLC. All rights reserved. Privacy Policy  Contact